Time,TemperatureF,DewpointF,PressureIn,WindDirection,WindDirectionDegrees,WindSpeedMPH,WindSpeedGustMPH,Humidity,HourlyPrecipIn,Conditions,Clouds,dailyrainin,SolarRadiationWatts/m^2,SoftwareType,DateUTC
2013-04-15 00:02:00,75.0,63.0,-100.00,NNW,331,1.0,3.0,66,0.00,,,0.00,0.000000,,2013-04-15 10:02:00,
2013-04-15 00:12:00,75.0,63.0,-100.00,NNW,331,1.0,3.0,66,0.00,,,0.00,0.000000,,2013-04-15 10:12:00,
2013-04-15 00:22:00,75.0,63.0,-100.00,NNW,331,1.0,3.0,66,0.00,,,0.00,0.000000,,2013-04-15 10:22:00,
2013-04-15 00:42:00,75.0,64.0,-100.00,NNW,338,1.0,3.0,68,0.00,,,0.00,0.000000,,2013-04-15 10:42:00,
2013-04-15 00:53:00,75.0,64.0,-100.00,NNW,338,1.0,3.0,68,0.00,,,0.00,0.000000,,2013-04-15 10:53:00,
2013-04-15 01:03:00,75.0,64.0,-100.00,NNW,338,1.0,3.0,68,0.00,,,0.00,0.000000,,2013-04-15 11:03:00,
2013-04-15 01:12:00,75.0,64.0,-100.00,NNW,338,1.0,3.0,68,0.00,,,0.00,0.000000,,2013-04-15 11:12:00,
2013-04-15 01:21:00,75.0,64.0,-100.00,NNW,338,1.0,3.0,68,0.00,,,0.00,0.000000,,2013-04-15 11:21:00,
2013-04-15 01:43:00,73.0,61.0,-100.00,East,81,3.0,7.0,65,0.00,,,0.00,0.000000,,2013-04-15 11:43:00,
2013-04-15 01:53:00,73.0,61.0,-100.00,East,81,3.0,7.0,65,0.00,,,0.00,0.000000,,2013-04-15 11:53:00,
2013-04-15 02:03:00,73.0,61.0,-100.00,East,81,3.0,7.0,65,0.00,,,0.00,0.000000,,2013-04-15 12:03:00,
2013-04-15 02:13:00,73.0,61.0,-100.00,East,81,3.0,7.0,65,0.00,,,0.00,0.000000,,2013-04-15 12:13:00,
2013-04-15 02:22:00,73.0,61.0,-100.00,East,81,3.0,7.0,65,0.00,,,0.00,0.000000,,2013-04-15 12:22:00,
2013-04-15 02:43:00,74.0,64.0,-100.00,SE,125,2.0,7.0,72,0.00,,,0.00,0.000000,,2013-04-15 12:43:00,
2013-04-15 02:53:00,74.0,64.0,-100.00,SE,125,2.0,7.0,72,0.00,,,0.00,0.000000,,2013-04-15 12:53:00,
2013-04-15 03:03:00,74.0,64.0,-100.00,SE,125,2.0,7.0,72,0.00,,,0.00,0.000000,,2013-04-15 13:03:00,
2013-04-15 03:12:00,74.0,64.0,-100.00,SE,125,2.0,7.0,72,0.00,,,0.00,0.000000,,2013-04-15 13:12:00,
2013-04-15 03:22:00,74.0,64.0,-100.00,SE,125,2.0,7.0,72,0.00,,,0.00,0.000000,,2013-04-15 13:22:00,
2013-04-15 03:43:00,73.0,62.0,-100.00,East,99,3.0,5.0,68,0.00,,,0.00,0.000000,,2013-04-15 13:43:00,
2013-04-15 03:53:00,73.0,62.0,-100.00,East,99,3.0,5.0,68,0.00,,,0.00,0.000000,,2013-04-15 13:53:00,
2013-04-15 04:04:00,73.0,62.0,-100.00,East,99,3.0,5.0,68,0.00,,,0.00,0.000000,,2013-04-15 14:04:00,
2013-04-15 04:12:00,73.0,62.0,-100.00,East,99,3.0,5.0,68,0.00,,,0.00,0.000000,,2013-04-15 14:12:00,
2013-04-15 04:21:00,73.0,62.0,-100.00,East,99,3.0,5.0,68,0.00,,,0.00,0.000000,,2013-04-15 14:21:00,
2013-04-15 04:44:00,73.0,62.0,-100.00,East,82,3.0,5.0,68,0.00,,,0.00,0.000000,,2013-04-15 14:44:00,
2013-04-15 04:54:00,73.0,62.0,-100.00,East,82,3.0,5.0,68,0.00,,,0.00,0.000000,,2013-04-15 14:54:00,
2013-04-15 05:03:00,73.0,62.0,-100.00,East,82,3.0,5.0,68,0.00,,,0.00,0.000000,,2013-04-15 15:03:00,
2013-04-15 05:12:00,73.0,62.0,-100.00,East,82,3.0,5.0,68,0.00,,,0.00,0.000000,,2013-04-15 15:12:00,
2013-04-15 05:22:00,73.0,62.0,-100.00,East,82,3.0,5.0,68,0.00,,,0.00,0.000000,,2013-04-15 15:22:00,
2013-04-15 05:45:00,72.0,60.0,-100.00,East,86,4.0,7.0,66,0.00,,,0.00,0.000000,,2013-04-15 15:45:00,
2013-04-15 05:54:00,72.0,60.0,-100.00,East,86,4.0,7.0,66,0.00,,,0.00,0.000000,,2013-04-15 15:54:00,
2013-04-15 06:04:00,72.0,60.0,-100.00,East,86,4.0,7.0,66,0.00,,,0.00,0.000000,,2013-04-15 16:04:00,
2013-04-15 06:12:00,72.0,60.0,-100.00,East,86,4.0,7.0,66,0.00,,,0.00,0.000000,,2013-04-15 16:12:00,
2013-04-15 06:22:00,72.0,60.0,-100.00,East,86,4.0,7.0,66,0.00,,,0.00,0.000000,,2013-04-15 16:22:00,
2013-04-15 06:44:00,70.0,59.0,-100.00,East,87,4.0,6.0,68,0.00,,,-99.99,0.000000,,2013-04-15 16:44:00,
2013-04-15 06:53:00,70.0,59.0,-100.00,East,87,4.0,6.0,68,0.00,,,-99.99,0.000000,,2013-04-15 16:53:00,
2013-04-15 07:03:00,70.0,59.0,-100.00,East,87,4.0,6.0,68,0.00,,,-99.99,0.000000,,2013-04-15 17:03:00,
2013-04-15 07:13:00,70.0,59.0,-100.00,East,87,4.0,6.0,68,0.00,,,-99.99,0.000000,,2013-04-15 17:13:00,
2013-04-15 07:21:00,70.0,59.0,-100.00,East,87,4.0,6.0,68,0.00,,,-99.99,0.000000,,2013-04-15 17:21:00,
2013-04-15 07:43:00,70.0,58.0,-100.00,East,92,5.0,8.0,65,0.00,,,0.00,38.000000,,2013-04-15 17:43:00,
2013-04-15 07:52:00,70.0,58.0,-100.00,East,92,5.0,8.0,65,0.00,,,0.00,38.000000,,2013-04-15 17:52:00,
2013-04-15 08:02:00,70.0,58.0,-100.00,East,92,5.0,8.0,65,0.00,,,0.00,38.000000,,2013-04-15 18:02:00,
2013-04-15 08:12:00,70.0,58.0,-100.00,East,92,5.0,8.0,65,0.00,,,0.00,38.000000,,2013-04-15 18:12:00,
2013-04-15 08:22:00,70.0,58.0,-100.00,East,92,5.0,8.0,65,0.00,,,0.00,38.000000,,2013-04-15 18:22:00,
2013-04-15 08:42:00,76.0,60.0,-100.00,ESE,104,3.0,6.0,57,0.00,,,0.00,263.000000,,2013-04-15 18:42:00,
2013-04-15 08:52:00,76.0,60.0,-100.00,ESE,104,3.0,6.0,57,0.00,,,0.00,263.000000,,2013-04-15 18:52:00,
2013-04-15 09:02:00,76.0,60.0,-100.00,ESE,104,3.0,6.0,57,0.00,,,0.00,263.000000,,2013-04-15 19:02:00,
2013-04-15 09:12:00,76.0,60.0,-100.00,ESE,104,3.0,6.0,57,0.00,,,0.00,263.000000,,2013-04-15 19:12:00,
2013-04-15 09:21:00,76.0,60.0,-100.00,ESE,104,3.0,6.0,57,0.00,,,0.00,263.000000,,2013-04-15 19:21:00,
2013-04-15 09:58:00,77.0,62.0,-100.00,WSW,256,4.0,8.0,60,0.00,,,0.00,506.000000,,2013-04-15 19:58:00,
2013-04-15 10:01:00,77.0,62.0,-100.00,WSW,256,4.0,8.0,60,0.00,,,0.00,506.000000,,2013-04-15 20:01:00,
2013-04-15 10:11:00,77.0,62.0,-100.00,WSW,256,4.0,8.0,60,0.00,,,0.00,506.000000,,2013-04-15 20:11:00,
2013-04-15 10:21:00,77.0,62.0,-100.00,WSW,256,4.0,8.0,60,0.00,,,0.00,506.000000,,2013-04-15 20:21:00,
2013-04-15 10:42:00,77.0,63.0,-100.00,West,277,6.0,9.0,62,0.00,,,0.00,707.000000,,2013-04-15 20:42:00,
2013-04-15 10:52:00,77.0,63.0,-100.00,West,277,6.0,9.0,62,0.00,,,0.00,707.000000,,2013-04-15 20:52:00,
2013-04-15 11:02:00,77.0,63.0,-100.00,West,277,6.0,9.0,62,0.00,,,0.00,707.000000,,2013-04-15 21:02:00,
2013-04-15 11:11:00,77.0,63.0,-100.00,West,277,6.0,9.0,62,0.00,,,0.00,707.000000,,2013-04-15 21:11:00,
2013-04-15 11:21:00,77.0,63.0,-100.00,West,277,6.0,9.0,62,0.00,,,0.00,707.000000,,2013-04-15 21:21:00,
2013-04-15 11:43:00,78.0,65.0,-100.00,West,278,7.0,10.0,64,0.00,,,0.00,884.000000,,2013-04-15 21:43:00,
2013-04-15 11:53:00,78.0,65.0,-100.00,West,278,7.0,10.0,64,0.00,,,0.00,884.000000,,2013-04-15 21:53:00,
2013-04-15 12:02:00,78.0,65.0,-100.00,West,278,7.0,10.0,64,0.00,,,0.00,884.000000,,2013-04-15 22:02:00,
2013-04-15 12:13:00,78.0,65.0,-100.00,West,278,7.0,10.0,64,0.00,,,0.00,884.000000,,2013-04-15 22:13:00,
2013-04-15 12:22:00,78.0,65.0,-100.00,West,278,7.0,10.0,64,0.00,,,0.00,884.000000,,2013-04-15 22:22:00,
2013-04-15 12:42:00,78.0,64.0,-100.00,West,279,8.0,13.0,63,0.00,,,0.00,963.000000,,2013-04-15 22:42:00,
2013-04-15 12:52:00,78.0,64.0,-100.00,West,279,8.0,13.0,63,0.00,,,0.00,963.000000,,2013-04-15 22:52:00,
2013-04-15 13:02:00,78.0,64.0,-100.00,West,279,8.0,13.0,63,0.00,,,0.00,963.000000,,2013-04-15 23:02:00,
2013-04-15 13:12:00,78.0,64.0,-100.00,West,279,8.0,13.0,63,0.00,,,0.00,963.000000,,2013-04-15 23:12:00,
2013-04-15 13:21:00,78.0,64.0,-100.00,West,279,8.0,13.0,63,0.00,,,0.00,963.000000,,2013-04-15 23:21:00,
2013-04-15 13:42:00,80.0,66.0,-100.00,WNW,282,10.0,14.0,62,0.00,,,0.00,979.000000,,2013-04-15 23:42:00,
2013-04-15 13:52:00,80.0,66.0,-100.00,WNW,282,10.0,14.0,62,0.00,,,0.00,979.000000,,2013-04-15 23:52:00,
2013-04-15 14:02:00,80.0,66.0,-100.00,WNW,282,10.0,14.0,62,0.00,,,0.00,979.000000,,2013-04-16 00:02:00,
2013-04-15 14:11:00,80.0,66.0,-100.00,WNW,282,10.0,14.0,62,0.00,,,0.00,979.000000,,2013-04-16 00:11:00,
2013-04-15 14:21:00,80.0,66.0,-100.00,WNW,282,10.0,14.0,62,0.00,,,0.00,979.000000,,2013-04-16 00:21:00,
2013-04-15 14:42:00,80.0,66.0,-100.00,WNW,287,9.0,15.0,63,0.00,,,0.00,872.000000,,2013-04-16 00:42:00,
2013-04-15 14:52:00,80.0,66.0,-100.00,WNW,287,9.0,15.0,63,0.00,,,0.00,872.000000,,2013-04-16 00:52:00,
2013-04-15 15:02:00,80.0,66.0,-100.00,WNW,287,9.0,15.0,63,0.00,,,0.00,872.000000,,2013-04-16 01:02:00,
2013-04-15 15:12:00,80.0,66.0,-100.00,WNW,287,9.0,15.0,63,0.00,,,0.00,872.000000,,2013-04-16 01:12:00,
2013-04-15 15:21:00,80.0,66.0,-100.00,WNW,287,9.0,15.0,63,0.00,,,0.00,872.000000,,2013-04-16 01:21:00,
2013-04-15 15:42:00,81.0,68.0,-100.00,WNW,300,9.0,16.0,65,0.00,,,0.00,780.000000,,2013-04-16 01:42:00,
2013-04-15 15:52:00,81.0,68.0,-100.00,WNW,300,9.0,16.0,65,0.00,,,0.00,780.000000,,2013-04-16 01:52:00,
2013-04-15 16:02:00,81.0,68.0,-100.00,WNW,300,9.0,16.0,65,0.00,,,0.00,780.000000,,2013-04-16 02:02:00,
2013-04-15 16:12:00,81.0,68.0,-100.00,WNW,300,9.0,16.0,65,0.00,,,0.00,780.000000,,2013-04-16 02:12:00,
2013-04-15 16:21:00,81.0,68.0,-100.00,WNW,300,9.0,16.0,65,0.00,,,0.00,780.000000,,2013-04-16 02:21:00,
2013-04-15 16:42:00,81.0,65.0,-100.00,WNW,289,7.0,13.0,58,0.00,,,0.00,650.000000,,2013-04-16 02:42:00,
2013-04-15 16:52:00,81.0,65.0,-100.00,WNW,289,7.0,13.0,58,0.00,,,0.00,650.000000,,2013-04-16 02:52:00,
2013-04-15 17:02:00,81.0,65.0,-100.00,WNW,289,7.0,13.0,58,0.00,,,0.00,650.000000,,2013-04-16 03:02:00,
2013-04-15 17:12:00,81.0,65.0,-100.00,WNW,289,7.0,13.0,58,0.00,,,0.00,650.000000,,2013-04-16 03:12:00,
2013-04-15 17:21:00,81.0,65.0,-100.00,WNW,289,7.0,13.0,58,0.00,,,0.00,650.000000,,2013-04-16 03:21:00,
2013-04-15 17:43:00,79.0,63.0,-100.00,WNW,288,7.0,11.0,59,0.00,,,0.00,329.000000,,2013-04-16 03:43:00,
2013-04-15 17:52:00,79.0,63.0,-100.00,WNW,288,7.0,11.0,59,0.00,,,0.00,329.000000,,2013-04-16 03:52:00,
2013-04-15 18:02:00,79.0,63.0,-100.00,WNW,288,7.0,11.0,59,0.00,,,0.00,329.000000,,2013-04-16 04:02:00,
2013-04-15 18:12:00,79.0,63.0,-100.00,WNW,288,7.0,11.0,59,0.00,,,0.00,329.000000,,2013-04-16 04:12:00,
2013-04-15 18:23:00,79.0,63.0,-100.00,WNW,288,7.0,11.0,59,0.00,,,0.00,329.000000,,2013-04-16 04:23:00,
2013-04-15 18:42:00,79.0,63.0,-100.00,WNW,300,5.0,9.0,58,0.00,,,0.00,159.000000,,2013-04-16 04:42:00,
2013-04-15 18:53:00,79.0,63.0,-100.00,WNW,300,5.0,9.0,58,0.00,,,0.00,159.000000,,2013-04-16 04:53:00,
2013-04-15 19:02:00,79.0,63.0,-100.00,WNW,300,5.0,9.0,58,0.00,,,0.00,159.000000,,2013-04-16 05:02:00,
2013-04-15 19:12:00,79.0,63.0,-100.00,WNW,300,5.0,9.0,58,0.00,,,0.00,159.000000,,2013-04-16 05:12:00,
2013-04-15 19:22:00,79.0,63.0,-100.00,WNW,300,5.0,9.0,58,0.00,,,0.00,159.000000,,2013-04-16 05:22:00,
2013-04-15 19:42:00,77.0,63.0,-100.00,NW,308,4.0,8.0,62,0.00,,,0.00,20.000000,,2013-04-16 05:42:00,
2013-04-15 19:52:00,77.0,63.0,-100.00,NW,308,4.0,8.0,62,0.00,,,0.00,20.000000,,2013-04-16 05:52:00,
2013-04-15 20:02:00,77.0,63.0,-100.00,NW,308,4.0,8.0,62,0.00,,,0.00,20.000000,,2013-04-16 06:02:00,
2013-04-15 20:12:00,77.0,63.0,-100.00,NW,308,4.0,8.0,62,0.00,,,0.00,20.000000,,2013-04-16 06:12:00,
2013-04-15 20:21:00,77.0,63.0,-100.00,NW,308,4.0,8.0,62,0.00,,,0.00,20.000000,,2013-04-16 06:21:00,
2013-04-15 20:42:00,77.0,64.0,-100.00,WSW,258,3.0,6.0,64,0.00,,,0.00,0.000000,,2013-04-16 06:42:00,
2013-04-15 20:52:00,77.0,64.0,-100.00,WSW,258,3.0,6.0,64,0.00,,,0.00,0.000000,,2013-04-16 06:52:00,
2013-04-15 21:02:00,77.0,64.0,-100.00,WSW,258,3.0,6.0,64,0.00,,,0.00,0.000000,,2013-04-16 07:02:00,
2013-04-15 21:12:00,77.0,64.0,-100.00,WSW,258,3.0,6.0,64,0.00,,,0.00,0.000000,,2013-04-16 07:12:00,
2013-04-15 21:21:00,77.0,64.0,-100.00,WSW,258,3.0,6.0,64,0.00,,,0.00,0.000000,,2013-04-16 07:21:00,
2013-04-15 21:42:00,77.0,63.0,-100.00,SSE,166,4.0,7.0,61,0.00,,,0.00,0.000000,,2013-04-16 07:42:00,
2013-04-15 21:53:00,77.0,63.0,-100.00,SSE,166,4.0,7.0,61,0.00,,,0.00,0.000000,,2013-04-16 07:53:00,
2013-04-15 22:02:00,77.0,63.0,-100.00,SSE,166,4.0,7.0,61,0.00,,,0.00,0.000000,,2013-04-16 08:02:00,
2013-04-15 22:11:00,77.0,63.0,-100.00,SSE,166,4.0,7.0,61,0.00,,,0.00,0.000000,,2013-04-16 08:11:00,
2013-04-15 22:21:00,77.0,63.0,-100.00,SSE,166,4.0,7.0,61,0.00,,,0.00,0.000000,,2013-04-16 08:21:00,
2013-04-15 22:42:00,76.0,62.0,-100.00,SSE,168,3.0,6.0,61,0.00,,,0.00,0.000000,,2013-04-16 08:42:00,
2013-04-15 22:52:00,76.0,62.0,-100.00,SSE,168,3.0,6.0,61,0.00,,,0.00,0.000000,,2013-04-16 08:52:00,
2013-04-15 23:02:00,76.0,62.0,-100.00,SSE,168,3.0,6.0,61,0.00,,,0.00,0.000000,,2013-04-16 09:02:00,
2013-04-15 23:11:00,76.0,62.0,-100.00,SSE,168,3.0,6.0,61,0.00,,,0.00,0.000000,,2013-04-16 09:11:00,
2013-04-15 23:21:00,76.0,62.0,-100.00,SSE,168,3.0,6.0,61,0.00,,,0.00,0.000000,,2013-04-16 09:21:00,
2013-04-15 23:43:00,76.0,59.0,-100.00,ESE,108,4.0,7.0,55,0.00,,,0.00,0.000000,,2013-04-16 09:43:00,
2013-04-15 23:53:00,76.0,59.0,-100.00,ESE,108,4.0,7.0,55,0.00,,,0.00,0.000000,,2013-04-16 09:53:00,